Location: Roy
(47.3334°N, 108.9587°W)
Time: 17:16:14
(UTC+00:00)

Envisat - Visible Passes

Search period start: 24 January 2022 00:00
Search period end: 03 February 2022 00:00
Orbit: 764 x 766 km, 98.2° (Epoch: 23 January)

Date Brightness Start Highest point End Pass type
(mag) Time Alt. Az. Time Alt. Az. Time Alt. Az.
24 Jan 6.0 10:39:16 10° ENE 10:40:43 11° E 10:42:10 10° ESE visible
24 Jan 3.0 12:15:25 10° NNE 12:20:33 81° ESE 12:25:38 10° SSW visible
24 Jan 4.4 13:55:48 10° NNW 13:58:55 17° WNW 14:02:03 10° W visible
25 Jan 4.2 11:38:47 10° NNE 11:43:32 39° E 11:48:16 10° SSE visible
25 Jan 3.7 13:18:01 10° N 13:22:27 31° WNW 13:26:52 10° SW visible
26 Jan 5.9 00:37:33 10° SW 00:40:48 17° W 00:44:02 10° NW visible
26 Jan 5.4 11:02:45 10° NE 11:06:21 19° E 11:09:56 10° SE visible
26 Jan 2.9 12:40:46 10° N 12:45:47 62° WNW 12:50:47 10° SSW visible
27 Jan 3.3 12:03:51 10° NNE 12:08:56 65° E 12:13:58 10° S visible
27 Jan 4.2 13:43:50 10° NNW 13:47:29 20° WNW 13:51:06 10° WSW visible
28 Jan 4.6 11:27:21 10° NNE 11:31:53 31° E 11:36:22 10° SSE visible
28 Jan 3.4 13:06:16 10° N 13:10:57 38° WNW 13:15:36 10° SW visible
29 Jan 5.7 10:51:41 10° NE 10:54:37 15° E 10:57:32 10° ESE visible
29 Jan 2.8 12:29:07 10° N 12:34:13 77° WNW 12:39:17 10° SSW visible
29 Jan 4.7 14:10:10 10° NNW 14:12:24 13° NW 14:14:37 10° W visible
30 Jan 3.7 11:52:19 10° NNE 11:57:18 52° E 12:02:15 10° S visible
30 Jan 4.0 13:31:58 10° N 13:36:00 24° WNW 13:40:01 10° WSW visible
31 Jan 6.2 00:52:35 10° WSW 00:54:40 12° W 00:56:46 10° WNW visible
31 Jan 5.0 11:15:59 10° NE 11:20:11 25° E 11:24:21 10° SSE visible
31 Jan 3.2 12:54:33 10° N 12:59:25 47° WNW 13:04:15 10° SW visible
01 Feb 5.9 10:40:56 10° ENE 10:42:51 12° E 10:44:46 10° ESE visible
01 Feb 2.9 12:17:30 10° NNE 12:22:38 86° ESE 12:27:43 10° SSW visible
01 Feb 4.5 13:58:00 10° NNW 14:00:58 16° WNW 14:03:55 10° W visible
02 Feb 4.1 11:40:50 10° NNE 11:45:39 41° E 11:50:26 10° SSE visible
02 Feb 3.8 13:20:09 10° N 13:24:31 29° WNW 13:28:52 10° WSW visible
